カタログに戻る

STARLINK-34256

運用中通信VLEO
NORAD 64249·PAYLOAD·🇺🇸 United States

打ち上げ Jun 3, 2025 から Cape Canaveral Space Force Station

Loading…

次のパス (今後24時間)

TLE

最新Source: CelesTrak SupGP

元期: Sep 15, 2026, 03:07 UTC

1 64249C 25119S   26258.13034722  .00041013  00000+0  14856-2 0  2580
2 64249  43.0013 316.9965 0001519 266.4084 107.4134 15.27555965    14

AllMySatでSTARLINK-34256をリアルタイム追跡

Download on the App Store